Weather History for CWRN - November, 2011

Change the Weather History Date:

Thursday, November 24, 2011

  Actual Average Record
Temperature  
Mean Temperature 36 °F -  
Max Temperature 38 °F - - ()
Min Temperature 34 °F - - ()
Degree Days  
Heating Degree Days 29    
Moisture  
Dew Point 32 °F    
Average Humidity 83    
Maximum Humidity 99    
Minimum Humidity 62    
Precipitation  
Precipitation 0.00 in - - ()
Sea Level Pressure  
Sea Level Pressure 29.76 in    
Wind  
Wind Speed 25 mph ()    
Max Wind Speed 36 mph    
Max Gust Speed 46 mph    
T = Trace of Precipitation, MM = Missing Value Source: Averaged Metar Reports

Daily Weather History Graph

Daily Weather History Graph

Search for Another Location

Airport or City:

Trip Planner

Search our weather history database for the weather conditions in past years. The results will help you decide how hot, cold, wet, or windy it might be!

Date:

Astronomy

Nov. 24, 2011 Rise Set
Actual Time 7:14 AM AST 4:26 PM AST
Civil Twilight 6:41 AM AST 4:59 PM AST
Nautical Twilight 6:04 AM AST 5:35 PM AST
Astronomical Twilight 5:29 AM AST 6:11 PM AST
Moon 6:27 AM AST (11/24) 3:51 PM AST (11/24)
Length of Visible Light 10h 18m
Length of Day
9h 12m
Waning Crescent, 1% of the Moon is Illuminated
Nov 24
Waning Crescent
Nov 25
New
Dec 2
First Quarter
Dec 10
Full
Dec 17
Last Quarter

Hourly Weather History & Observations

Time (AST) Temp. Windchill Dew Point Humidity Pressure Visibility Wind Dir Wind Speed Gust Speed Precip Events Conditions
12:00 AM 34.5 °F 20.4 °F 34.3 °F 99% 29.63 in - NE 33.4 mph 44.9 mph N/A   Unknown
1:00 AM 34.7 °F 20.5 °F 34.3 °F 99% 29.58 in - NNE 34.5 mph 46.0 mph N/A   Unknown
2:00 AM 35 °F - 34 °F 93% 29.58 in - NNE 33.4 mph - -  
2:00 AM 34.5 °F 20.4 °F 33.8 °F 97% 29.58 in - NNE 33.4 mph 44.9 mph N/A   Unknown
3:00 AM 35.8 °F 22.8 °F 33.8 °F 92% 29.59 in - NNE 29.9 mph 36.8 mph N/A   Unknown
4:00 AM 36.3 °F 23.7 °F 33.8 °F 91% 29.60 in - NNE 28.8 mph 35.7 mph N/A   Unknown
6:00 AM 37.4 °F 24.0 °F 34.2 °F 88% 29.62 in - NNE 35.7 mph 43.7 mph N/A   Unknown
7:00 AM 37.9 °F 25.3 °F 34.5 °F 87% 29.67 in - NNE 32.2 mph 42.6 mph N/A   Unknown
8:00 AM 38 °F - 34 °F 81% 29.70 in - North 31.1 mph - -  
8:00 AM 37.6 °F 25.0 °F 34.3 °F 88% 29.70 in - North 31.1 mph 39.1 mph N/A   Unknown
9:00 AM 37.2 °F 24.5 °F 34.3 °F 89% 29.73 in - North 31.1 mph 39.1 mph N/A   Unknown
10:00 AM 36.0 °F 23.7 °F 33.4 °F 91% 29.75 in - North 26.5 mph - N/A   Unknown
11:00 AM 35.2 °F 23.2 °F 31.5 °F 86% 29.77 in - North 24.2 mph - N/A   Unknown
12:00 PM 36.9 °F 25.4 °F 31.8 °F 82% 29.78 in - North 24.2 mph - N/A   Unknown
1:00 PM 37.0 °F 25.9 °F 31.8 °F 81% 29.80 in - North 23.0 mph - N/A   Unknown
2:00 PM 37 °F - 30 °F 69% 29.80 in - North 20.7 mph - -  
2:00 PM 36.9 °F 26.2 °F 30.4 °F 77% 29.80 in - North 20.7 mph - N/A   Unknown
3:00 PM 37.6 °F 27.7 °F 31.8 °F 80% 29.82 in - North 18.4 mph - N/A   Unknown
4:00 PM 36.3 °F 24.7 °F 29.7 °F 77% 29.86 in - NNW 24.2 mph - N/A   Unknown
5:00 PM 35.6 °F 24.0 °F 27.9 °F 73% 29.89 in - NNW 23.0 mph - N/A   Unknown
6:00 PM 35.8 °F 24.2 °F 29.1 °F 77% 29.91 in - NNW 23.0 mph - N/A   Unknown
7:00 PM 34.9 °F 23.9 °F 27.3 °F 74% 29.94 in - NNW 19.6 mph - N/A   Unknown
8:00 PM 35 °F - 27 °F 62% 29.97 in - NNW 18.4 mph - -  
8:00 PM 34.7 °F 24.0 °F 26.8 °F 73% 29.97 in - NNW 18.4 mph - N/A   Unknown
11:00 PM 35.4 °F 25.3 °F 27.7 °F 73% 29.99 in - NNW 17.3 mph - N/A   Unknown